When you browse on this site, cookies collect data to enhance your experience and personalize the content and advertising you see.
Visit our Privacy Policy to learn more. By continuing to use the site, you agree to this use of cookies and data.
  • In Hungary
  • List of Countries
  • For 7 days
  • Water Temperature
  • Satellite Maps
  • Weather Map
  • News
  • Weather Widgets
  • user-avatar
    Login

    Hourly Weather Przylek

    Today, 17 February, Sunday

    Time Temperature Precipitation Wind Pressure Humidity
    00:00 +3°C° 0 mm 4 mps 749 mmHg 63%
    01:00 +4°C° 0 mm 4 mps 749 mmHg 63%
    02:00 +3°C° 0 mm 4 mps 749 mmHg 64%
    03:00 +3°C° 0 mm 4 mps 749 mmHg 64%
    04:00 +1°C° 0 mm 4 mps 748 mmHg 65%
    05:00 +1°C° 0 mm 4 mps 748 mmHg 66%
    06:00 +1°C° 0 mm 4 mps 749 mmHg 68%
    07:00 0°C° 0 mm 4 mps 749 mmHg 69%
    08:00 +3°C° 0 mm 4 mps 749 mmHg 64%
    09:00 +5°C° 0 mm 4 mps 749 mmHg 59%
    10:00 +6°C° 0 mm 4 mps 749 mmHg 55%
    11:00 +7°C° 0 mm 4 mps 748 mmHg 52%
    12:00 +8°C° 0 mm 4 mps 748 mmHg 50%
    13:00 +11°C° 0 mm 4 mps 748 mmHg 48%
    14:00 +10°C° 0 mm 3 mps 748 mmHg 50%
    15:00 +10°C° 0 mm 3 mps 748 mmHg 53%
    16:00 +9°C° 0 mm 2 mps 748 mmHg 55%
    17:00 +8°C° 0 mm 2 mps 748 mmHg 58%
    18:00 +7°C° 0 mm 2 mps 748 mmHg 62%
    19:00 +6°C° 0 mm 2 mps 748 mmHg 65%
    20:00 +5°C° 0 mm 2 mps 748 mmHg 67%
    21:00 +5°C° 0 mm 2 mps 748 mmHg 68%
    22:00 +5°C° 0 mm 2 mps 748 mmHg 70%
    23:00 +5°C° 0 mm 1 mps 748 mmHg 72%

    Tomorrow, 18 February, Monday

    Time Temperature Precipitation Wind Pressure Humidity
    00:00 +5°C° 0 mm 1 mps 748 mmHg 74%
    01:00 +5°C° 0 mm 1 mps 748 mmHg 76%
    02:00 +4°C° 0 mm 1 mps 748 mmHg 76%
    03:00 +4°C° 0 mm 1 mps 748 mmHg 77%
    04:00 +4°C° 0 mm 1 mps 748 mmHg 78%
    05:00 +4°C° 0 mm 1 mps 748 mmHg 77%
    06:00 +4°C° 0 mm 1 mps 748 mmHg 77%
    07:00 +3°C° 0 mm 1 mps 748 mmHg 76%
    08:00 +5°C° 0 mm 1 mps 748 mmHg 70%
    09:00 +6°C° 0 mm 1 mps 748 mmHg 64%
    10:00 +8°C° 0 mm 1 mps 748 mmHg 58%
    11:00 +9°C° 0 mm 1 mps 747 mmHg 54%
    12:00 +10°C° 0 mm 1 mps 747 mmHg 50%
    13:00 +10°C° 0 mm 2 mps 747 mmHg 46%
    14:00 +10°C° 0 mm 2 mps 747 mmHg 48%
    15:00 +9°C° 0 mm 2 mps 746 mmHg 50%
    16:00 +9°C° 0 mm 2 mps 746 mmHg 52%
    17:00 +8°C° 0 mm 2 mps 746 mmHg 56%
    18:00 +7°C° 0 mm 2 mps 746 mmHg 60%
    19:00 +6°C° 0 mm 2 mps 746 mmHg 64%
    20:00 +5°C° 0 mm 2 mps 746 mmHg 67%
    21:00 +5°C° 0 mm 2 mps 746 mmHg 69%
    22:00 +4°C° 0 mm 2 mps 746 mmHg 71%
    23:00 +4°C° 0 mm 2 mps 746 mmHg 73%

    Day after tomorrow, 19 February, Tuesday

    Time Temperature Precipitation Wind Pressure Humidity
    00:00 +4°C° 0 mm 2 mps 746 mmHg 76%
    01:00 +4°C° 0 mm 2 mps 746 mmHg 78%
    02:00 +3°C° 0 mm 2 mps 745 mmHg 78%
    03:00 +3°C° 0 mm 2 mps 745 mmHg 78%
    04:00 +3°C° 0 mm 2 mps 745 mmHg 78%
    05:00 +3°C° 0 mm 2 mps 745 mmHg 77%
    06:00 +2°C° 0 mm 2 mps 745 mmHg 75%
    07:00 +2°C° 0 mm 2 mps 744 mmHg 74%
    08:00 +3°C° 0 mm 3 mps 744 mmHg 68%
    09:00 +5°C° 0 mm 3 mps 744 mmHg 62%
    10:00 +6°C° 0 mm 4 mps 744 mmHg 55%
    11:00 +8°C° 0 mm 4 mps 744 mmHg 52%
    12:00 +10°C° 0 mm 4 mps 744 mmHg 50%
    13:00 +10°C° 0 mm 5 mps 743 mmHg 47%
    14:00 +10°C° 0 mm 4 mps 743 mmHg 50%
    15:00 +10°C° 0 mm 4 mps 743 mmHg 53%
    16:00 +10°C° 0 mm 3 mps 743 mmHg 56%
    17:00 +8°C° 0 mm 4 mps 743 mmHg 62%
    18:00 +6°C° 0 mm 4 mps 743 mmHg 67%
    19:00 +5°C° 0 mm 4 mps 743 mmHg 73%
    20:00 +5°C° 0 mm 4 mps 743 mmHg 75%
    21:00 +4°C° 0 mm 4 mps 743 mmHg 77%
    22:00 +4°C° 0 mm 4 mps 744 mmHg 78%
    23:00 +4°C° 0.1 mm 4 mps 744 mmHg 80%

    20 February, Wednesday

    Time Temperature Precipitation Wind Pressure Humidity
    00:00 +4°C° 0.1 mm 4 mps 744 mmHg 81%
    01:00 +4°C° 0.1 mm 4 mps 744 mmHg 83%
    02:00 +4°C° 0.2 mm 4 mps 744 mmHg 86%
    03:00 +4°C° 0.2 mm 4 mps 744 mmHg 90%
    04:00 +3°C° 0.2 mm 4 mps 744 mmHg 93%
    05:00 +3°C° 0 mm 4 mps 745 mmHg 89%
    06:00 +3°C° 0 mm 4 mps 745 mmHg 85%
    07:00 +3°C° 0 mm 4 mps 745 mmHg 81%
    08:00 +4°C° 0 mm 4 mps 745 mmHg 76%
    09:00 +3°C° 0 mm 5 mps 746 mmHg 70%
    10:00 +5°C° 0 mm 5 mps 746 mmHg 65%
    11:00 +5°C° 0 mm 6 mps 746 mmHg 64%
    12:00 +5°C° 0 mm 6 mps 746 mmHg 62%
    13:00 +7°C° 0 mm 6 mps 746 mmHg 61%
    14:00 +7°C° 0.1 mm 6 mps 746 mmHg 62%
    15:00 +5°C° 0.1 mm 6 mps 746 mmHg 63%
    16:00 +5°C° 0.1 mm 6 mps 746 mmHg 64%
    17:00 +5°C° 0 mm 5 mps 747 mmHg 67%
    18:00 +5°C° 0 mm 5 mps 747 mmHg 70%
    19:00 +4°C° 0 mm 4 mps 748 mmHg 72%
    20:00 +4°C° 0 mm 4 mps 748 mmHg 76%
    21:00 +3°C° 0 mm 3 mps 748 mmHg 80%
    22:00 +2°C° 0 mm 3 mps 749 mmHg 83%
    23:00 +2°C° 0 mm 3 mps 749 mmHg 84%

    21 February, Thursday

    Time Temperature Precipitation Wind Pressure Humidity
    00:00 +3°C° 0 mm 2 mps 749 mmHg 85%
    01:00 +3°C° 0 mm 2 mps 749 mmHg 86%
    02:00 +2°C° 0 mm 3 mps 749 mmHg 87%
    03:00 +2°C° 0 mm 3 mps 749 mmHg 87%
    04:00 +3°C° 0 mm 3 mps 749 mmHg 87%
    05:00 +2°C° 0 mm 3 mps 749 mmHg 88%
    06:00 +2°C° 0 mm 3 mps 749 mmHg 88%
    07:00 +2°C° 0 mm 3 mps 749 mmHg 88%
    08:00 +3°C° 0 mm 4 mps 749 mmHg 83%
    09:00 +4°C° 0 mm 4 mps 749 mmHg 77%
    10:00 +5°C° 0 mm 5 mps 750 mmHg 72%
    11:00 +6°C° 0 mm 5 mps 749 mmHg 69%
    12:00 +7°C° 0 mm 5 mps 749 mmHg 65%
    13:00 +7°C° 0 mm 5 mps 749 mmHg 62%
    14:00 +7°C° 0.1 mm 4 mps 748 mmHg 64%
    15:00 +6°C° 0.1 mm 4 mps 748 mmHg 65%
    16:00 +7°C° 0.1 mm 3 mps 748 mmHg 67%
    17:00 +7°C° 0.1 mm 3 mps 748 mmHg 69%
    18:00 +5°C° 0.1 mm 3 mps 748 mmHg 72%
    19:00 +5°C° 0.1 mm 3 mps 748 mmHg 74%
    20:00 +5°C° 0 mm 3 mps 748 mmHg 76%
    21:00 +5°C° 0 mm 3 mps 748 mmHg 78%
    22:00 +5°C° 0 mm 3 mps 747 mmHg 80%
    23:00 +5°C° 0.1 mm 4 mps 747 mmHg 82%

    22 February, Friday

    Time Temperature Precipitation Wind Pressure Humidity
    00:00 +4°C° 0.1 mm 4 mps 747 mmHg 84%
    01:00 +3°C° 0.1 mm 5 mps 747 mmHg 87%
    02:00 +3°C° 0.1 mm 5 mps 747 mmHg 89%
    03:00 +4°C° 0.1 mm 4 mps 746 mmHg 90%
    04:00 +4°C° 0.1 mm 4 mps 746 mmHg 92%
    05:00 +4°C° 0.1 mm 4 mps 746 mmHg 92%
    06:00 +5°C° 0.1 mm 4 mps 746 mmHg 92%
    07:00 +5°C° 0.1 mm 4 mps 745 mmHg 92%
    08:00 +5°C° 0.6 mm 5 mps 746 mmHg 91%
    09:00 +5°C° 0.6 mm 5 mps 746 mmHg 89%
    10:00 +4°C° 0.6 mm 6 mps 746 mmHg 88%
    11:00 +4°C° 0.1 mm 6 mps 746 mmHg 85%
    12:00 +4°C° 0.1 mm 6 mps 746 mmHg 83%
    13:00 +4°C° 0.1 mm 6 mps 746 mmHg 80%
    14:00 +5°C° 0.1 mm 5 mps 747 mmHg 82%
    15:00 +5°C° 0.1 mm 5 mps 747 mmHg 84%
    16:00 +5°C° 0.1 mm 5 mps 748 mmHg 86%
    17:00 +5°C° 0.1 mm 4 mps 749 mmHg 88%
    18:00 +4°C° 0.1 mm 4 mps 750 mmHg 89%
    19:00 +4°C° 0.1 mm 4 mps 751 mmHg 91%
    20:00 +2°C° 0.1 mm 5 mps 752 mmHg 87%
    21:00 +1°C° 0.1 mm 6 mps 752 mmHg 82%
    22:00 -2°C° 0.1 mm 6 mps 753 mmHg 78%
    23:00 -2°C° 0 mm 6 mps 754 mmHg 75%
    Show more